﻿測定場所 (Monitoring sites),日付 (Measurement date),時間 (Measurement time),線量率 最大値 (max) μGy/h,線量率 最小値 (min) μGy/h,線量率 平均値 (average) μGy/h,
大田 (Ota),2016-07-24,23:01～24:00,0.0382,0.0345,0.0363,
大田 (Ota),2016-07-24,22:01～23:00,0.0390,0.0344,0.0364,
大田 (Ota),2016-07-24,21:01～22:00,0.0385,0.0350,0.0367,
大田 (Ota),2016-07-24,20:01～21:00,0.0388,0.0345,0.0365,
大田 (Ota),2016-07-24,19:01～20:00,0.0382,0.0346,0.0363,
大田 (Ota),2016-07-24,18:01～19:00,0.0386,0.0351,0.0363,
大田 (Ota),2016-07-24,17:01～18:00,0.0396,0.0343,0.0366,
大田 (Ota),2016-07-24,16:01～17:00,0.0382,0.0345,0.0362,
大田 (Ota),2016-07-24,15:01～16:00,0.0391,0.0349,0.0367,
大田 (Ota),2016-07-24,14:01～15:00,0.0395,0.0346,0.0366,
大田 (Ota),2016-07-24,13:01～14:00,0.0398,0.0339,0.0365,
大田 (Ota),2016-07-24,12:01～13:00,0.0402,0.0347,0.0367,
大田 (Ota),2016-07-24,11:01～12:00,0.0389,0.0354,0.0367,
大田 (Ota),2016-07-24,10:01～11:00,0.0393,0.0347,0.0367,
大田 (Ota),2016-07-24,09:01～10:00,0.0401,0.0350,0.0370,
大田 (Ota),2016-07-24,08:01～09:00,0.0401,0.0348,0.0366,
大田 (Ota),2016-07-24,07:01～08:00,0.0396,0.0347,0.0365,
大田 (Ota),2016-07-24,06:01～07:00,0.0382,0.0351,0.0366,
大田 (Ota),2016-07-24,05:01～06:00,0.0392,0.0343,0.0364,
大田 (Ota),2016-07-24,04:01～05:00,0.0383,0.0343,0.0362,
大田 (Ota),2016-07-24,03:01～04:00,0.0381,0.0344,0.0365,
大田 (Ota),2016-07-24,02:01～03:00,0.0395,0.0346,0.0363,
大田 (Ota),2016-07-24,01:01～02:00,0.0384,0.0338,0.0363,
大田 (Ota),2016-07-24,00:01～01:00,0.0385,0.0340,0.0362,
大田 (Ota),2016-07-23,23:01～24:00,0.0380,0.0343,0.0361,
大田 (Ota),2016-07-23,22:01～23:00,0.0382,0.0342,0.0362,
大田 (Ota),2016-07-23,21:01～22:00,0.0391,0.0337,0.0361,
大田 (Ota),2016-07-23,20:01～21:00,0.0400,0.0346,0.0364,
大田 (Ota),2016-07-23,19:01～20:00,0.0400,0.0343,0.0365,
大田 (Ota),2016-07-23,18:01～19:00,0.0407,0.0345,0.0363,
大田 (Ota),2016-07-23,17:01～18:00,0.0385,0.0347,0.0362,
大田 (Ota),2016-07-23,16:01～17:00,0.0389,0.0341,0.0365,
大田 (Ota),2016-07-23,15:01～16:00,0.0404,0.0344,0.0363,
大田 (Ota),2016-07-23,14:01～15:00,0.0407,0.0344,0.0363,
大田 (Ota),2016-07-23,13:01～14:00,0.0394,0.0342,0.0362,
大田 (Ota),2016-07-23,12:01～13:00,0.0383,0.0340,0.0363,
大田 (Ota),2016-07-23,11:01～12:00,0.0381,0.0343,0.0361,
大田 (Ota),2016-07-23,10:01～11:00,0.0386,0.0345,0.0365,
大田 (Ota),2016-07-23,09:01～10:00,0.0379,0.0343,0.0362,
大田 (Ota),2016-07-23,08:01～09:00,0.0396,0.0336,0.0362,
大田 (Ota),2016-07-23,07:01～08:00,0.0391,0.0343,0.0364,
大田 (Ota),2016-07-23,06:01～07:00,0.0381,0.0347,0.0361,
大田 (Ota),2016-07-23,05:01～06:00,0.0377,0.0348,0.0360,
大田 (Ota),2016-07-23,04:01～05:00,0.0387,0.0343,0.0360,
大田 (Ota),2016-07-23,03:01～04:00,0.0388,0.0345,0.0363,
大田 (Ota),2016-07-23,02:01～03:00,0.0376,0.0334,0.0357,
大田 (Ota),2016-07-23,01:01～02:00,0.0388,0.0341,0.0360,
大田 (Ota),2016-07-23,00:01～01:00,0.0387,0.0340,0.0361,
大田 (Ota),2016-07-22,23:01～24:00,0.0383,0.0339,0.0358,
大田 (Ota),2016-07-22,22:01～23:00,0.0401,0.0338,0.0359,
大田 (Ota),2016-07-22,21:01～22:00,0.0377,0.0344,0.0359,
大田 (Ota),2016-07-22,20:01～21:00,0.0385,0.0336,0.0359,
大田 (Ota),2016-07-22,19:01～20:00,0.0385,0.0336,0.0359,
大田 (Ota),2016-07-22,18:01～19:00,0.0391,0.0339,0.0360,
大田 (Ota),2016-07-22,17:01～18:00,0.0404,0.0340,0.0362,
大田 (Ota),2016-07-22,16:01～17:00,0.0373,0.0345,0.0360,
大田 (Ota),2016-07-22,15:01～16:00,0.0402,0.0340,0.0362,
大田 (Ota),2016-07-22,14:01～15:00,0.0380,0.0343,0.0361,
大田 (Ota),2016-07-22,13:01～14:00,0.0390,0.0341,0.0360,
大田 (Ota),2016-07-22,12:01～13:00,0.0382,0.0348,0.0363,
大田 (Ota),2016-07-22,11:01～12:00,0.0381,0.0336,0.0360,
大田 (Ota),2016-07-22,10:01～11:00,0.0405,0.0347,0.0365,
大田 (Ota),2016-07-22,09:01～10:00,0.0398,0.0344,0.0364,
大田 (Ota),2016-07-22,08:01～09:00,0.0401,0.0351,0.0373,
大田 (Ota),2016-07-22,07:01～08:00,0.0427,0.0371,0.0400,
大田 (Ota),2016-07-22,06:01～07:00,0.0415,0.0350,0.0379,
大田 (Ota),2016-07-22,05:01～06:00,0.0391,0.0346,0.0364,
大田 (Ota),2016-07-22,04:01～05:00,0.0392,0.0339,0.0362,
大田 (Ota),2016-07-22,03:01～04:00,0.0379,0.0338,0.0358,
大田 (Ota),2016-07-22,02:01～03:00,0.0378,0.0335,0.0358,
大田 (Ota),2016-07-22,01:01～02:00,0.0384,0.0342,0.0360,
大田 (Ota),2016-07-22,00:01～01:00,0.0377,0.0342,0.0359,
大田 (Ota),2016-07-21,23:01～24:00,0.0377,0.0343,0.0360,
大田 (Ota),2016-07-21,22:01～23:00,0.0375,0.0340,0.0361,
大田 (Ota),2016-07-21,21:01～22:00,0.0382,0.0343,0.0364,
大田 (Ota),2016-07-21,20:01～21:00,0.0409,0.0355,0.0375,
大田 (Ota),2016-07-21,19:01～20:00,0.0403,0.0348,0.0373,
大田 (Ota),2016-07-21,18:01～19:00,0.0423,0.0355,0.0385,
大田 (Ota),2016-07-21,17:01～18:00,0.0438,0.0380,0.0408,
大田 (Ota),2016-07-21,16:01～17:00,0.0478,0.0396,0.0436,
大田 (Ota),2016-07-21,15:01～16:00,0.0462,0.0401,0.0433,
大田 (Ota),2016-07-21,14:01～15:00,0.0520,0.0406,0.0461,
大田 (Ota),2016-07-21,13:01～14:00,0.0509,0.0442,0.0478,
大田 (Ota),2016-07-21,12:01～13:00,0.0486,0.0402,0.0451,
大田 (Ota),2016-07-21,11:01～12:00,0.0517,0.0415,0.0465,
大田 (Ota),2016-07-21,10:01～11:00,0.0560,0.0466,0.0510,
大田 (Ota),2016-07-21,09:01～10:00,0.0561,0.0431,0.0497,
大田 (Ota),2016-07-21,08:01～09:00,0.0526,0.0429,0.0483,
大田 (Ota),2016-07-21,07:01～08:00,0.0496,0.0420,0.0457,
大田 (Ota),2016-07-21,06:01～07:00,0.0500,0.0429,0.0464,
大田 (Ota),2016-07-21,05:01～06:00,0.0510,0.0441,0.0475,
大田 (Ota),2016-07-21,04:01～05:00,0.0536,0.0423,0.0472,
大田 (Ota),2016-07-21,03:01～04:00,0.0470,0.0393,0.0426,
大田 (Ota),2016-07-21,02:01～03:00,0.0436,0.0368,0.0408,
大田 (Ota),2016-07-21,01:01～02:00,0.0465,0.0360,0.0400,
大田 (Ota),2016-07-21,00:01～01:00,0.0410,0.0351,0.0371,
大田 (Ota),2016-07-20,23:01～24:00,0.0408,0.0347,0.0371,
大田 (Ota),2016-07-20,22:01～23:00,0.0400,0.0354,0.0372,
大田 (Ota),2016-07-20,21:01～22:00,0.0397,0.0354,0.0370,
大田 (Ota),2016-07-20,20:01～21:00,0.0405,0.0354,0.0376,
大田 (Ota),2016-07-20,19:01～20:00,0.0398,0.0352,0.0370,
大田 (Ota),2016-07-20,18:01～19:00,0.0396,0.0351,0.0372,
大田 (Ota),2016-07-20,17:01～18:00,0.0406,0.0354,0.0373,
大田 (Ota),2016-07-20,16:01～17:00,0.0413,0.0340,0.0372,
大田 (Ota),2016-07-20,15:01～16:00,0.0403,0.0351,0.0373,
大田 (Ota),2016-07-20,14:01～15:00,0.0404,0.0344,0.0372,
大田 (Ota),2016-07-20,13:01～14:00,0.0397,0.0353,0.0372,
大田 (Ota),2016-07-20,12:01～13:00,0.0413,0.0353,0.0372,
大田 (Ota),2016-07-20,11:01～12:00,0.0408,0.0358,0.0373,
大田 (Ota),2016-07-20,10:01～11:00,0.0404,0.0354,0.0374,
大田 (Ota),2016-07-20,09:01～10:00,0.0396,0.0354,0.0371,
大田 (Ota),2016-07-20,08:01～09:00,0.0389,0.0346,0.0369,
大田 (Ota),2016-07-20,07:01～08:00,0.0403,0.0352,0.0372,
大田 (Ota),2016-07-20,06:01～07:00,0.0403,0.0349,0.0372,
大田 (Ota),2016-07-20,05:01～06:00,0.0412,0.0353,0.0380,
大田 (Ota),2016-07-20,04:01～05:00,0.0435,0.0349,0.0380,
大田 (Ota),2016-07-20,03:01～04:00,0.0402,0.0350,0.0369,
大田 (Ota),2016-07-20,02:01～03:00,0.0411,0.0347,0.0371,
大田 (Ota),2016-07-20,01:01～02:00,0.0404,0.0343,0.0372,
大田 (Ota),2016-07-20,00:01～01:00,0.0401,0.0354,0.0373,
大田 (Ota),2016-07-19,23:01～24:00,0.0403,0.0348,0.0370,
大田 (Ota),2016-07-19,22:01～23:00,0.0392,0.0350,0.0370,
大田 (Ota),2016-07-19,21:01～22:00,0.0401,0.0347,0.0369,
大田 (Ota),2016-07-19,20:01～21:00,0.0397,0.0355,0.0371,
大田 (Ota),2016-07-19,19:01～20:00,0.0405,0.0352,0.0372,
大田 (Ota),2016-07-19,18:01～19:00,0.0397,0.0353,0.0369,
大田 (Ota),2016-07-19,17:01～18:00,0.0411,0.0349,0.0373,
大田 (Ota),2016-07-19,16:01～17:00,0.0403,0.0356,0.0373,
大田 (Ota),2016-07-19,15:01～16:00,0.0405,0.0358,0.0374,
大田 (Ota),2016-07-19,14:01～15:00,0.0410,0.0356,0.0371,
大田 (Ota),2016-07-19,13:01～14:00,0.0406,0.0354,0.0371,
大田 (Ota),2016-07-19,12:01～13:00,0.0403,0.0354,0.0373,
大田 (Ota),2016-07-19,11:01～12:00,0.0408,0.0353,0.0373,
大田 (Ota),2016-07-19,10:01～11:00,0.0407,0.0346,0.0376,
大田 (Ota),2016-07-19,09:01～10:00,0.0414,0.0355,0.0376,
大田 (Ota),2016-07-19,08:01～09:00,0.0396,0.0345,0.0372,
大田 (Ota),2016-07-19,07:01～08:00,0.0406,0.0354,0.0373,
大田 (Ota),2016-07-19,06:01～07:00,0.0395,0.0345,0.0369,
大田 (Ota),2016-07-19,05:01～06:00,0.0402,0.0357,0.0378,
大田 (Ota),2016-07-19,04:01～05:00,0.0395,0.0355,0.0372,
大田 (Ota),2016-07-19,03:01～04:00,0.0400,0.0340,0.0371,
大田 (Ota),2016-07-19,02:01～03:00,0.0389,0.0354,0.0368,
大田 (Ota),2016-07-19,01:01～02:00,0.0398,0.0351,0.0369,
大田 (Ota),2016-07-19,00:01～01:00,0.0386,0.0349,0.0365,
大田 (Ota),2016-07-18,23:01～24:00,0.0391,0.0346,0.0366,
大田 (Ota),2016-07-18,22:01～23:00,0.0396,0.0346,0.0368,
大田 (Ota),2016-07-18,21:01～22:00,0.0397,0.0346,0.0367,
大田 (Ota),2016-07-18,20:01～21:00,0.0414,0.0349,0.0369,
大田 (Ota),2016-07-18,19:01～20:00,0.0402,0.0354,0.0370,
大田 (Ota),2016-07-18,18:01～19:00,0.0398,0.0352,0.0369,
大田 (Ota),2016-07-18,17:01～18:00,0.0404,0.0350,0.0370,
大田 (Ota),2016-07-18,16:01～17:00,0.0408,0.0350,0.0370,
大田 (Ota),2016-07-18,15:01～16:00,0.0396,0.0352,0.0372,
大田 (Ota),2016-07-18,14:01～15:00,0.0393,0.0353,0.0370,
大田 (Ota),2016-07-18,13:01～14:00,0.0404,0.0358,0.0372,
大田 (Ota),2016-07-18,12:01～13:00,0.0404,0.0354,0.0372,
大田 (Ota),2016-07-18,11:01～12:00,0.0412,0.0353,0.0371,
大田 (Ota),2016-07-18,10:01～11:00,0.0395,0.0354,0.0373,
大田 (Ota),2016-07-18,09:01～10:00,0.0399,0.0350,0.0372,
大田 (Ota),2016-07-18,08:01～09:00,0.0398,0.0341,0.0368,
大田 (Ota),2016-07-18,07:01～08:00,0.0401,0.0349,0.0371,
大田 (Ota),2016-07-18,06:01～07:00,0.0393,0.0344,0.0366,
大田 (Ota),2016-07-18,05:01～06:00,0.0416,0.0347,0.0370,
大田 (Ota),2016-07-18,04:01～05:00,0.0407,0.0351,0.0367,
大田 (Ota),2016-07-18,03:01～04:00,0.0389,0.0350,0.0366,
大田 (Ota),2016-07-18,02:01～03:00,0.0402,0.0346,0.0367,
大田 (Ota),2016-07-18,01:01～02:00,0.0391,0.0341,0.0369,
大田 (Ota),2016-07-18,00:01～01:00,0.0394,0.0347,0.0367,
